• In Österreich
  • Länderverzeichnis
  • Für 7 Tage
  • Wassertemperatur
  • Satellitenkarten
  • Wetterkarte
  • News
  • Widgets
  • user-avatar
    Anmelden

    Stündliche Wetter Bristol

    Heute, 23 Oktober, Dienstag

    Zeit Temperatur Niederschläge Wind Luftdruck Luftfeuchtigkeit
    00:00 +7°C° 0 mm 3 m/S 776 mmHg 90%
    01:00 +7°C° 0 mm 3 m/S 776 mmHg 91%
    02:00 +7°C° 0 mm 3 m/S 775 mmHg 91%
    03:00 +7°C° 0 mm 3 m/S 775 mmHg 92%
    04:00 +7°C° 0 mm 4 m/S 775 mmHg 92%
    05:00 +7°C° 0 mm 4 m/S 775 mmHg 91%
    06:00 +7°C° 0 mm 4 m/S 774 mmHg 91%
    07:00 +8°C° 0 mm 4 m/S 773 mmHg 86%
    08:00 +9°C° 0 mm 5 m/S 773 mmHg 81%
    09:00 +10°C° 0 mm 6 m/S 773 mmHg 76%
    10:00 +13°C° 0 mm 6 m/S 773 mmHg 72%
    11:00 +14°C° 0 mm 6 m/S 773 mmHg 67%
    12:00 +15°C° 0 mm 5 m/S 772 mmHg 61%
    13:00 +15°C° 0 mm 5 m/S 772 mmHg 63%
    14:00 +15°C° 0 mm 5 m/S 772 mmHg 64%
    15:00 +15°C° 0 mm 5 m/S 772 mmHg 65%
    16:00 +14°C° 0 mm 5 m/S 772 mmHg 70%
    17:00 +13°C° 0 mm 4 m/S 772 mmHg 75%
    18:00 +12°C° 0 mm 4 m/S 772 mmHg 80%
    19:00 +11°C° 0 mm 4 m/S 772 mmHg 82%
    20:00 +11°C° 0 mm 4 m/S 772 mmHg 84%
    21:00 +10°C° 0 mm 4 m/S 772 mmHg 85%
    22:00 +10°C° 0 mm 4 m/S 772 mmHg 87%
    23:00 +10°C° 0 mm 4 m/S 772 mmHg 88%

    Morgen, 24 Oktober, Mittwoch

    Zeit Temperatur Niederschläge Wind Luftdruck Luftfeuchtigkeit
    00:00 +10°C° 0 mm 4 m/S 772 mmHg 90%
    01:00 +10°C° 0 mm 3 m/S 772 mmHg 91%
    02:00 +10°C° 0 mm 3 m/S 772 mmHg 92%
    03:00 +9°C° 0 mm 3 m/S 771 mmHg 94%
    04:00 +9°C° 0 mm 3 m/S 771 mmHg 94%
    05:00 +9°C° 0 mm 3 m/S 771 mmHg 94%
    06:00 +9°C° 0 mm 3 m/S 771 mmHg 94%
    07:00 +10°C° 0 mm 3 m/S 771 mmHg 91%
    08:00 +10°C° 0 mm 3 m/S 772 mmHg 87%
    09:00 +11°C° 0 mm 3 m/S 772 mmHg 83%
    10:00 +13°C° 0 mm 3 m/S 771 mmHg 78%
    11:00 +14°C° 0 mm 3 m/S 771 mmHg 72%
    12:00 +16°C° 0 mm 3 m/S 771 mmHg 66%
    13:00 +16°C° 0 mm 3 m/S 771 mmHg 67%
    14:00 +16°C° 0 mm 3 m/S 770 mmHg 67%
    15:00 +16°C° 0 mm 3 m/S 770 mmHg 68%
    16:00 +14°C° 0 mm 3 m/S 770 mmHg 75%
    17:00 +12°C° 0 mm 3 m/S 770 mmHg 82%
    18:00 +10°C° 0 mm 3 m/S 770 mmHg 88%
    19:00 +10°C° 0 mm 3 m/S 770 mmHg 89%
    20:00 +9°C° 0 mm 3 m/S 770 mmHg 90%
    21:00 +8°C° 0 mm 2 m/S 770 mmHg 91%
    22:00 +8°C° 0 mm 2 m/S 769 mmHg 92%
    23:00 +8°C° 0 mm 2 m/S 769 mmHg 93%

    übermorgen, 25 Oktober, Donnerstag

    Zeit Temperatur Niederschläge Wind Luftdruck Luftfeuchtigkeit
    00:00 +7°C° 0 mm 2 m/S 769 mmHg 93%
    01:00 +7°C° 0 mm 2 m/S 769 mmHg 93%
    02:00 +8°C° 0 mm 1 m/S 768 mmHg 93%
    03:00 +7°C° 0 mm 1 m/S 768 mmHg 93%
    04:00 +7°C° 0 mm 1 m/S 768 mmHg 93%
    05:00 +7°C° 0 mm 1 m/S 768 mmHg 93%
    06:00 +7°C° 0 mm 1 m/S 768 mmHg 93%
    07:00 +8°C° 0 mm 1 m/S 767 mmHg 91%
    08:00 +9°C° 0 mm 1 m/S 767 mmHg 88%
    09:00 +10°C° 0 mm 1 m/S 767 mmHg 85%
    10:00 +10°C° 0 mm 2 m/S 767 mmHg 80%
    11:00 +13°C° 0 mm 2 m/S 767 mmHg 75%
    12:00 +14°C° 0 mm 2 m/S 767 mmHg 70%
    13:00 +14°C° 0 mm 2 m/S 766 mmHg 70%
    14:00 +13°C° 0 mm 3 m/S 766 mmHg 70%
    15:00 +13°C° 0 mm 3 m/S 765 mmHg 70%
    16:00 +12°C° 0 mm 3 m/S 765 mmHg 77%
    17:00 +11°C° 0 mm 3 m/S 765 mmHg 83%
    18:00 +9°C° 0 mm 3 m/S 764 mmHg 89%
    19:00 +9°C° 0 mm 3 m/S 764 mmHg 90%
    20:00 +8°C° 0 mm 3 m/S 764 mmHg 92%
    21:00 +8°C° 0 mm 3 m/S 764 mmHg 93%
    22:00 +7°C° 0 mm 3 m/S 763 mmHg 93%
    23:00 +7°C° 0 mm 3 m/S 763 mmHg 93%

    26 Oktober, Freitag

    Zeit Temperatur Niederschläge Wind Luftdruck Luftfeuchtigkeit
    00:00 +7°C° 0 mm 3 m/S 762 mmHg 93%
    01:00 +7°C° 0 mm 3 m/S 762 mmHg 92%
    02:00 +6°C° 0 mm 4 m/S 761 mmHg 91%
    03:00 +7°C° 0 mm 4 m/S 761 mmHg 90%
    04:00 +7°C° 0 mm 5 m/S 761 mmHg 89%
    05:00 +7°C° 0 mm 5 m/S 761 mmHg 88%
    06:00 +8°C° 0 mm 5 m/S 761 mmHg 87%
    07:00 +8°C° 0 mm 6 m/S 761 mmHg 80%
    08:00 +8°C° 0 mm 6 m/S 761 mmHg 73%
    09:00 +7°C° 0 mm 6 m/S 762 mmHg 67%
    10:00 +8°C° 0 mm 6 m/S 762 mmHg 63%
    11:00 +9°C° 0 mm 7 m/S 762 mmHg 59%
    12:00 +10°C° 0 mm 7 m/S 762 mmHg 55%
    13:00 +9°C° 0 mm 7 m/S 762 mmHg 56%
    14:00 +9°C° 0 mm 7 m/S 762 mmHg 56%
    15:00 +9°C° 0 mm 7 m/S 762 mmHg 57%
    16:00 +8°C° 0 mm 6 m/S 762 mmHg 62%
    17:00 +7°C° 0 mm 5 m/S 763 mmHg 66%
    18:00 +6°C° 0 mm 5 m/S 763 mmHg 71%
    19:00 +5°C° 0 mm 4 m/S 764 mmHg 72%
    20:00 +5°C° 0 mm 4 m/S 764 mmHg 73%
    21:00 +4°C° 0 mm 4 m/S 764 mmHg 73%
    22:00 +4°C° 0 mm 4 m/S 765 mmHg 75%
    23:00 +3°C° 0 mm 4 m/S 765 mmHg 76%

    27 Oktober, Samstag

    Zeit Temperatur Niederschläge Wind Luftdruck Luftfeuchtigkeit
    00:00 +3°C° 0 mm 4 m/S 765 mmHg 77%
    01:00 +3°C° 0 mm 4 m/S 765 mmHg 76%
    02:00 +3°C° 0 mm 4 m/S 765 mmHg 76%
    03:00 +1°C° 0 mm 4 m/S 766 mmHg 75%
    04:00 +1°C° 0 mm 4 m/S 766 mmHg 74%
    05:00 0°C° 0 mm 4 m/S 765 mmHg 74%
    06:00 0°C° 0 mm 4 m/S 765 mmHg 73%
    07:00 +1°C° 0 mm 5 m/S 766 mmHg 68%
    08:00 +2°C° 0 mm 5 m/S 766 mmHg 63%
    09:00 +3°C° 0 mm 6 m/S 766 mmHg 58%
    10:00 +4°C° 0 mm 6 m/S 766 mmHg 53%
    11:00 +4°C° 0 mm 6 m/S 766 mmHg 48%
    12:00 +5°C° 0 mm 7 m/S 766 mmHg 43%
    13:00 +5°C° 0 mm 7 m/S 765 mmHg 43%
    14:00 +5°C° 0 mm 7 m/S 765 mmHg 42%
    15:00 +5°C° 0 mm 7 m/S 765 mmHg 42%
    16:00 +3°C° 0 mm 6 m/S 765 mmHg 47%
    17:00 +2°C° 0 mm 5 m/S 765 mmHg 52%
    18:00 +1°C° 0 mm 5 m/S 765 mmHg 57%
    19:00 +1°C° 0 mm 5 m/S 765 mmHg 58%
    20:00 0°C° 0 mm 5 m/S 765 mmHg 60%
    21:00 0°C° 0 mm 5 m/S 766 mmHg 62%
    22:00 -1°C° 0 mm 4 m/S 766 mmHg 63%
    23:00 -1°C° 0 mm 4 m/S 766 mmHg 65%

    28 Oktober, Sonntag

    Zeit Temperatur Niederschläge Wind Luftdruck Luftfeuchtigkeit
    00:00 -1°C° 0 mm 4 m/S 766 mmHg 67%
    01:00 -1°C° 0 mm 4 m/S 765 mmHg 69%
    02:00 -1°C° 0 mm 4 m/S 765 mmHg 72%
    03:00 -1°C° 0 mm 4 m/S 765 mmHg 75%
    04:00 -1°C° 0 mm 4 m/S 765 mmHg 77%
    05:00 -1°C° 0 mm 5 m/S 765 mmHg 79%
    06:00 -1°C° 0 mm 5 m/S 766 mmHg 80%
    07:00 +1°C° 0 mm 6 m/S 766 mmHg 77%
    08:00 +2°C° 0 mm 6 m/S 766 mmHg 73%
    09:00 +3°C° 0 mm 7 m/S 766 mmHg 69%
    10:00 +4°C° 0 mm 7 m/S 766 mmHg 65%
    11:00 +6°C° 0 mm 7 m/S 767 mmHg 61%
    12:00 +7°C° 0 mm 8 m/S 767 mmHg 57%
    13:00 +7°C° 0 mm 8 m/S 766 mmHg 57%
    14:00 +8°C° 0 mm 7 m/S 766 mmHg 57%
    15:00 +8°C° 0 mm 7 m/S 766 mmHg 58%
    16:00 +6°C° 0 mm 7 m/S 766 mmHg 62%
    17:00 +5°C° 0 mm 6 m/S 767 mmHg 67%
    18:00 +4°C° 0 mm 6 m/S 767 mmHg 72%
    19:00 +3°C° 0 mm 5 m/S 767 mmHg 74%
    20:00 +3°C° 0 mm 5 m/S 767 mmHg 76%
    21:00 +2°C° 0 mm 5 m/S 767 mmHg 79%
    22:00 +2°C° 0 mm 5 m/S 767 mmHg 81%
    23:00 +1°C° 0 mm 4 m/S 767 mmHg 83%

    29 Oktober, Montag

    Zeit Temperatur Niederschläge Wind Luftdruck Luftfeuchtigkeit
    00:00 +1°C° 0 mm 4 m/S 767 mmHg 86%
    01:00 +1°C° 0 mm 4 m/S 766 mmHg 87%
    02:00 0°C° 0 mm 4 m/S 766 mmHg 89%
    03:00 +1°C° 0 mm 3 m/S 766 mmHg 90%
    04:00 +1°C° 0 mm 3 m/S 765 mmHg 91%
    05:00 +1°C° 0 mm 3 m/S 765 mmHg 91%
    06:00 +1°C° 0 mm 3 m/S 765 mmHg 91%
    07:00 +2°C° 0 mm 3 m/S 765 mmHg 86%
    08:00 +3°C° 0 mm 4 m/S 765 mmHg 81%
    09:00 +4°C° 0 mm 4 m/S 764 mmHg 76%
    10:00 +5°C° 0 mm 4 m/S 764 mmHg 69%
    11:00 +7°C° 0 mm 4 m/S 763 mmHg 62%
    12:00 +8°C° 0 mm 5 m/S 763 mmHg 56%
    13:00 +8°C° 0 mm 5 m/S 762 mmHg 56%
    14:00 +8°C° 0 mm 5 m/S 761 mmHg 56%
    15:00 +8°C° 0 mm 5 m/S 761 mmHg 56%
    16:00 +6°C° 0 mm 4 m/S 761 mmHg 62%
    17:00 +5°C° 0 mm 4 m/S 761 mmHg 68%
    18:00 +3°C° 0 mm 3 m/S 761 mmHg 73%
    19:00 +3°C° 0 mm 3 m/S 760 mmHg 75%
    20:00 +3°C° 0 mm 4 m/S 760 mmHg 76%
    21:00 +1°C° 0 mm 4 m/S 760 mmHg 77%
    22:00 +1°C° 0 mm 4 m/S 759 mmHg 80%
    23:00 +1°C° 0 mm 4 m/S 759 mmHg 82%
    Mehr zeigen